Weather History for KCFE - July, 2013

Change the Weather History Date:

Monday, July 1, 2013

  Actual Average (KSTC) Record (KSTC)
Temperature  
Mean Temperature 72 °F 70 °F  
Max Temperature 84 °F 81 °F 98 °F (1921)
Min Temperature 59 °F 58 °F 40 °F (1969)
Degree Days  
Heating Degree Days 0 1  
Month to date heating degree days 1  
Since 1 June heating degree days 79  
Since 1 July heating degree days 1  
Cooling Degree Days 6 5  
Month to date cooling degree days 5  
Year to date cooling degree days 125  
Since 1 June cooling degree days 100  
Growing Degree Days 22 (Base 50)    
Moisture  
Dew Point 54 °F    
Average Humidity 58    
Maximum Humidity 87    
Minimum Humidity 30    
Precipitation  
Precipitation 0.00 in 0.12 in 1.28 in (1962)
Month to date precipitation 0.12  
Year to date precipitation 12.60  
Snow  
Snow 0.00 in 0.00 in 0.00 in ()
Month to date snowfall 0.0  
Since 1 June snowfall 0.0  
Since 1 July snowfall 0.0  
Snow Depth -    
Sea Level Pressure  
Sea Level Pressure 30.18 in    
Wind  
Wind Speed 2 mph (NNE)    
Max Wind Speed 12 mph    
Max Gust Speed -    
Visibility 10 miles    
Events      
T = Trace of Precipitation, MM = Missing Value Source: NWS Daily Summary

Daily Weather History Graph

Daily Weather History Graph

Search for Another Location

Airport or City:

Trip Planner

Search our weather history database for the weather conditions in past years. The results will help you decide how hot, cold, wet, or windy it might be!

Date:

Astronomy

Jul. 01, 2013 Rise Set
Actual Time 5:32 AM CDT 9:06 PM CDT
Civil Twilight 4:54 AM CDT 9:43 PM CDT
Nautical Twilight 4:05 AM CDT 10:32 PM CDT
Astronomical Twilight 2:59 AM CDT 11:37 PM CDT
Moon 1:13 AM CDT (7/1) 3:13 PM CDT (7/1)
Length of Visible Light 16h 48m
Length of Day
15h 34m
Waning Crescent, 35% of the Moon is Illuminated
Jul 1
Waning Crescent
Jul 8
New
Jul 15
First Quarter
Jul 22
Full
Jul 29
Last Quarter

Hourly Weather History & Observations

Time (CDT) Temp. Heat Index Dew Point Humidity Pressure Visibility Wind Dir Wind Speed Gust Speed Precip Events Conditions
12:14 AM 64.6 °F - 54.7 °F 70% 30.15 in 10.0 mi Calm Calm - N/A   Clear
12:34 AM 63.9 °F - 56.3 °F 76% 30.15 in 10.0 mi Calm Calm - N/A   Clear
12:54 AM 63.5 °F - 55.9 °F 76% 30.15 in 10.0 mi Calm Calm - N/A   Clear
1:14 AM 62.8 °F - 55.6 °F 77% 30.15 in 10.0 mi Calm Calm - N/A   Clear
1:34 AM 63.1 °F - 55.4 °F 76% 30.15 in 10.0 mi Calm Calm - N/A   Clear
1:54 AM 62.1 °F - 55.4 °F 79% 30.15 in 10.0 mi Calm Calm - N/A   Clear
2:14 AM 61.2 °F - 55.8 °F 82% 30.15 in 10.0 mi Calm Calm - N/A   Clear
2:34 AM 60.8 °F - 55.8 °F 83% 30.16 in 10.0 mi Calm Calm - N/A   Clear
2:54 AM 60.8 °F - 55.6 °F 83% 30.16 in 10.0 mi Calm Calm - N/A   Clear
3:14 AM 60.3 °F - 55.8 °F 85% 30.16 in 10.0 mi Calm Calm - N/A   Clear
3:34 AM 59.4 °F - 55.4 °F 87% 30.16 in 10.0 mi Calm Calm - N/A   Clear
3:54 AM 59.5 °F - 55.4 °F 86% 30.16 in 10.0 mi Calm Calm - N/A   Clear
4:14 AM 59.4 °F - 55.4 °F 87% 30.16 in 10.0 mi Calm Calm - N/A   Clear
4:34 AM 59.2 °F - 54.9 °F 86% 30.16 in 10.0 mi Calm Calm - N/A   Clear
4:54 AM 59.4 °F - 54.9 °F 85% 30.17 in 10.0 mi Calm Calm - N/A   Clear
5:14 AM 60.3 °F - 54.9 °F 82% 30.17 in 10.0 mi Calm Calm - N/A   Clear
5:34 AM 60.3 °F - 54.9 °F 82% 30.18 in 10.0 mi Calm Calm - N/A   Clear
5:54 AM 60.8 °F - 54.9 °F 81% 30.19 in 10.0 mi Calm Calm - N/A   Clear
6:14 AM 60.3 °F - 54.7 °F 82% 30.19 in 10.0 mi Calm Calm - N/A   Clear
6:34 AM 62.1 °F - 55.9 °F 80% 30.19 in 10.0 mi Calm Calm - N/A   Clear
6:54 AM 62.8 °F - 56.3 °F 79% 30.19 in 10.0 mi NNW 3.5 mph - N/A   Scattered Clouds
7:14 AM 63.7 °F - 56.3 °F 77% 30.20 in 10.0 mi North 4.6 mph - N/A   Clear
7:34 AM 64.4 °F - 56.3 °F 75% 30.20 in 10.0 mi North 3.5 mph - N/A   Clear
7:54 AM 64.8 °F - 56.3 °F 74% 30.20 in 10.0 mi North 3.5 mph - N/A   Clear
8:14 AM 66.4 °F - 56.8 °F 71% 30.20 in 10.0 mi Calm Calm - N/A   Clear
8:34 AM 67.6 °F - 57.2 °F 69% 30.21 in 10.0 mi NNW 5.8 mph - N/A   Clear
8:55 AM 69.8 °F - 57.9 °F 66% 30.21 in 10.0 mi Calm Calm - N/A   Clear
9:14 AM 71.1 °F - 58.1 °F 63% 30.21 in 10.0 mi Calm Calm - N/A   Clear
9:34 AM 73.4 °F - 57.6 °F 58% 30.21 in 10.0 mi Calm Calm - N/A   Clear
9:55 AM 74.5 °F - 56.7 °F 54% 30.21 in 10.0 mi Calm Calm - N/A   Clear
10:14 AM 74.3 °F - 57.4 °F 55% 30.21 in 10.0 mi Calm Calm - N/A   Clear
10:34 AM 75.4 °F - 58.3 °F 55% 30.21 in 10.0 mi NE 3.5 mph - N/A   Clear
10:55 AM 76.3 °F - 55.9 °F 49% 30.21 in 10.0 mi ENE 3.5 mph - N/A   Clear
11:14 AM 77.7 °F - 54.7 °F 45% 30.21 in 10.0 mi NNE 3.5 mph - N/A   Clear
11:34 AM 79.2 °F - 55.2 °F 44% 30.21 in 10.0 mi North 3.5 mph - N/A   Clear
11:55 AM 79.3 °F - 52.7 °F 39% 30.21 in 10.0 mi North 4.6 mph - N/A   Clear
12:14 PM 79.9 °F - 54.1 °F 41% 30.21 in 10.0 mi Calm Calm - N/A   Clear
12:34 PM 81.0 °F 80.7 °F 54.9 °F 41% 30.21 in 10.0 mi NNE 5.8 mph - N/A   Clear
12:55 PM 81.5 °F 80.7 °F 53.1 °F 37% 30.20 in 10.0 mi NNE 5.8 mph - N/A   Clear
1:14 PM 81.9 °F - 52.0 °F 35% 30.20 in 10.0 mi NNE 6.9 mph - N/A   Clear
1:34 PM 82.0 °F 81.2 °F 53.1 °F 37% 30.19 in 10.0 mi North 6.9 mph - N/A   Clear
1:55 PM 83.3 °F - 52.9 °F 35% 30.19 in 10.0 mi NNE 6.9 mph - N/A   Clear
2:14 PM 83.1 °F - 52.9 °F 35% 30.19 in 10.0 mi NNE 3.5 mph - N/A   Clear
2:34 PM 82.6 °F - 51.6 °F 34% 30.19 in 10.0 mi NE 6.9 mph - N/A   Scattered Clouds
2:54 PM 83.3 °F - 52.7 °F 35% 30.18 in 7.0 mi NNE 8.1 mph - N/A   Scattered Clouds
3:14 PM 84.2 °F - 52.7 °F 34% 30.18 in 7.0 mi NE 5.8 mph - N/A   Clear
3:34 PM 83.1 °F - 51.4 °F 33% 30.17 in 10.0 mi NNE 8.1 mph - N/A   Scattered Clouds
3:54 PM 83.3 °F - 48.7 °F 30% 30.17 in 10.0 mi NE 4.6 mph - N/A   Clear
4:14 PM 83.7 °F - 51.1 °F 32% 30.17 in 10.0 mi NNE 8.1 mph - N/A   Clear
4:34 PM 82.0 °F - 51.1 °F 34% 30.17 in 10.0 mi NNE 9.2 mph - N/A   Scattered Clouds
4:54 PM 83.3 °F - 50.4 °F 32% 30.17 in 10.0 mi NNE 11.5 mph - N/A   Scattered Clouds
5:14 PM 83.3 °F - 49.8 °F 31% 30.17 in 10.0 mi NE 8.1 mph - N/A   Clear
5:34 PM 82.4 °F - 50.2 °F 33% 30.17 in 10.0 mi NNE 5.8 mph - N/A   Clear
5:54 PM 81.9 °F - 50.2 °F 33% 30.17 in 10.0 mi NNE 8.1 mph - N/A   Clear
6:14 PM 81.7 °F - 50.7 °F 34% 30.17 in 10.0 mi NNE 8.1 mph - N/A   Clear
6:34 PM 81.5 °F - 50.0 °F 33% 30.17 in 10.0 mi NNE 10.4 mph - N/A   Clear
6:54 PM 80.6 °F - 50.4 °F 35% 30.17 in 10.0 mi NNE 8.1 mph - N/A   Clear
7:14 PM 79.9 °F - 49.6 °F 35% 30.17 in 10.0 mi NE 5.8 mph - N/A   Clear
7:34 PM 79.7 °F - 52.0 °F 38% 30.17 in 10.0 mi NNE 6.9 mph - N/A   Clear
7:54 PM 78.3 °F - 52.0 °F 40% 30.17 in 10.0 mi NNE 5.8 mph - N/A   Clear
8:14 PM 77.0 °F - 53.4 °F 44% 30.17 in 10.0 mi NNE 4.6 mph - N/A   Clear
8:34 PM 76.1 °F - 54.3 °F 47% 30.17 in 10.0 mi NNE 3.5 mph - N/A   Clear
8:55 PM 73.8 °F - 54.1 °F 50% 30.17 in 10.0 mi Calm Calm - N/A   Clear
9:14 PM 72.9 °F - 54.3 °F 52% 30.17 in 10.0 mi NE 3.5 mph - N/A   Clear
9:34 PM 71.2 °F - 55.2 °F 57% 30.17 in 10.0 mi NNE 3.5 mph - N/A   Clear
9:55 PM 70.7 °F - 55.6 °F 59% 30.18 in 10.0 mi Calm Calm - N/A   Clear
10:14 PM 69.6 °F - 55.0 °F 60% 30.18 in 10.0 mi Calm Calm - N/A   Clear
10:34 PM 69.1 °F - 55.4 °F 62% 30.18 in 10.0 mi Calm Calm - N/A   Clear
10:55 PM 68.0 °F - 54.9 °F 63% 30.18 in 10.0 mi Calm Calm - N/A   Clear
11:14 PM 67.3 °F - 55.4 °F 66% 30.18 in 10.0 mi Calm Calm - N/A   Clear
11:34 PM 66.4 °F - 56.3 °F 70% 30.18 in 10.0 mi Calm Calm - N/A   Clear
11:54 PM 65.5 °F - 57.2 °F 75% 30.18 in 10.0 mi Calm Calm - N/A   Clear